DLH1HE EDDF-LIPZ

Flight info

Callsign DLH1HE
Flight time 0h 58m
Altitude 31000
Route ANEKI3F ANEKI Y163 PABLA Z721 UTABA/N0445F290 M738 ADOSA L612 ALBET
Aircraft A21N/M-SDE2E3FGHIRWXY/LB1

Departure

Time 2026-05-07 02:46
Airport Frankfurt Main Airport (EDDF)

Arrival

Time 2026-05-07 03:44
Airport Venice Marco Polo Airport (LIPZ)
Time Latitude Longitude Altitude Speed Heading
2026-05-07 02:29 50.04432 8.56328 361 ft 0 kts 167°
2026-05-07 02:38 50.04441 8.56325 361 ft 3 kts 167°
2026-05-07 02:38 50.04461 8.56319 365 ft 3 kts 166°
2026-05-07 02:38 50.04477 8.56313 364 ft 3 kts 185°
2026-05-07 02:39 50.04494 8.56322 364 ft 3 kts 222°
2026-05-07 02:39 50.04506 8.56345 365 ft 3 kts 242°
2026-05-07 02:39 50.04514 8.56374 366 ft 4 kts 249°
2026-05-07 02:39 50.04516 8.56379 365 ft 1 kts 249°
2026-05-07 02:41 50.04510 8.56357 367 ft 6 kts 249°
2026-05-07 02:41 50.04483 8.56244 367 ft 13 kts 249°
2026-05-07 02:41 50.04448 8.56098 366 ft 15 kts 249°
2026-05-07 02:42 50.04363 8.56044 363 ft 17 kts 161°
2026-05-07 02:42 50.04279 8.56158 360 ft 18 kts 83°
2026-05-07 02:42 50.04215 8.56255 361 ft 8 kts 163°
2026-05-07 02:42 50.04155 8.56295 362 ft 11 kts 133°
2026-05-07 02:43 50.04166 8.56442 360 ft 16 kts 69°
2026-05-07 02:43 50.04206 8.56609 362 ft 18 kts 69°
2026-05-07 02:43 50.04252 8.56801 366 ft 20 kts 70°
2026-05-07 02:43 50.04301 8.57010 368 ft 21 kts 70°
2026-05-07 02:44 50.04356 8.57238 371 ft 23 kts 69°
2026-05-07 02:44 50.04414 8.57480 370 ft 25 kts 69°
2026-05-07 02:44 50.04381 8.57662 373 ft 16 kts 162°
2026-05-07 02:44 50.04277 8.57686 369 ft 16 kts 221°
2026-05-07 02:45 50.04265 8.57659 369 ft 0 kts 250°
2026-05-07 02:45 50.04261 8.57644 371 ft 11 kts 250°
2026-05-07 02:45 50.04153 8.57189 376 ft 82 kts 248°
2026-05-07 02:45 50.03872 8.56013 363 ft 145 kts 250°
2026-05-07 02:46 50.03614 8.54942 425 ft 167 kts 251°
2026-05-07 02:46 50.03222 8.53249 1084 ft 167 kts 253°
2026-05-07 02:46 50.02782 8.51563 1870 ft 166 kts 246°
2026-05-07 02:46 50.02074 8.50093 2453 ft 183 kts 221°
2026-05-07 02:47 50.00828 8.49369 3035 ft 200 kts 197°
2026-05-07 02:47 49.99397 8.49077 3679 ft 216 kts 179°
2026-05-07 02:47 49.97943 8.49816 4398 ft 227 kts 148°
2026-05-07 02:47 49.96835 8.51579 5204 ft 231 kts 129°
2026-05-07 02:48 49.95584 8.53135 5914 ft 236 kts 161°
2026-05-07 02:48 49.93936 8.53509 6306 ft 254 kts 182°
2026-05-07 02:48 49.92080 8.53486 6849 ft 271 kts 182°
2026-05-07 02:48 49.90166 8.53497 7614 ft 278 kts 181°
2026-05-07 02:49 49.88214 8.53561 8445 ft 284 kts 180°
2026-05-07 02:49 49.86218 8.53656 9280 ft 288 kts 181°
2026-05-07 02:49 49.84196 8.53771 10059 ft 296 kts 180°
2026-05-07 02:49 49.82068 8.53899 10428 ft 316 kts 180°
2026-05-07 02:50 49.79797 8.54048 10737 ft 337 kts 180°
2026-05-07 02:50 49.77385 8.54073 11029 ft 356 kts 185°
2026-05-07 02:50 49.74800 8.53762 11323 ft 376 kts 187°
2026-05-07 02:50 49.72180 8.53405 11617 ft 392 kts 187°
2026-05-07 02:51 49.69413 8.53028 11981 ft 404 kts 187°
2026-05-07 02:51 49.66559 8.52637 12523 ft 408 kts 186°
2026-05-07 02:51 49.63753 8.52256 13102 ft 411 kts 186°
2026-05-07 02:51 49.60857 8.51872 13717 ft 415 kts 186°
2026-05-07 02:52 49.57970 8.51491 14236 ft 417 kts 186°
2026-05-07 02:52 49.55067 8.51111 14746 ft 420 kts 186°
2026-05-07 02:52 49.52177 8.50731 15324 ft 423 kts 185°
2026-05-07 02:52 49.49233 8.50346 15951 ft 427 kts 185°
2026-05-07 02:53 49.46258 8.49957 16563 ft 431 kts 185°
2026-05-07 02:53 49.43251 8.49564 17138 ft 435 kts 185°
2026-05-07 02:53 49.40333 8.49182 17683 ft 438 kts 185°
2026-05-07 02:53 49.37240 8.48784 18270 ft 441 kts 185°
2026-05-07 02:54 49.34174 8.48370 18722 ft 444 kts 185°
2026-05-07 02:54 49.31089 8.47959 19162 ft 447 kts 185°
2026-05-07 02:54 49.27967 8.47559 19621 ft 451 kts 185°
2026-05-07 02:54 49.24838 8.47162 20068 ft 453 kts 185°
2026-05-07 02:55 49.21683 8.46757 20479 ft 456 kts 185°
2026-05-07 02:55 49.18503 8.46349 20956 ft 459 kts 185°
2026-05-07 02:55 49.15310 8.45940 21444 ft 462 kts 185°
2026-05-07 02:55 49.12094 8.45515 21897 ft 465 kts 185°
2026-05-07 02:56 49.08860 8.45096 22284 ft 467 kts 185°
2026-05-07 02:56 49.05625 8.44491 22634 ft 470 kts 191°
2026-05-07 02:56 49.02420 8.43420 22991 ft 473 kts 193°
2026-05-07 02:56 48.99202 8.42281 23346 ft 476 kts 193°
2026-05-07 02:57 48.95973 8.41147 23642 ft 479 kts 193°
2026-05-07 02:57 48.92711 8.40015 23951 ft 481 kts 193°
2026-05-07 02:57 48.89436 8.38884 24268 ft 483 kts 192°
2026-05-07 02:57 48.86109 8.38183 24653 ft 482 kts 182°
2026-05-07 02:58 48.82776 8.38492 25025 ft 480 kts 170°
2026-05-07 02:58 48.79572 8.39873 25365 ft 478 kts 157°
2026-05-07 02:58 48.76650 8.42247 25721 ft 476 kts 145°
2026-05-07 02:58 48.74130 8.45474 25986 ft 476 kts 133°
2026-05-07 02:59 48.72065 8.49378 26340 ft 473 kts 124°
2026-05-07 02:59 48.70167 8.53443 26697 ft 473 kts 123°
2026-05-07 02:59 48.68274 8.57513 27069 ft 472 kts 124°
2026-05-07 02:59 48.66402 8.61502 27476 ft 470 kts 124°
2026-05-07 03:00 48.64498 8.65521 27902 ft 469 kts 124°
2026-05-07 03:00 48.62596 8.69518 28262 ft 467 kts 124°
2026-05-07 03:00 48.60669 8.73547 28585 ft 467 kts 125°
2026-05-07 03:00 48.58784 8.77475 28888 ft 467 kts 125°
2026-05-07 03:01 48.56876 8.81457 29226 ft 467 kts 125°
2026-05-07 03:01 48.54973 8.85421 29559 ft 466 kts 125°
2026-05-07 03:01 48.53075 8.89376 29909 ft 465 kts 125°
2026-05-07 03:01 48.51177 8.93319 30228 ft 463 kts 126°
2026-05-07 03:02 48.49281 8.97252 30451 ft 464 kts 126°
2026-05-07 03:02 48.47383 9.01180 30690 ft 464 kts 126°
2026-05-07 03:02 48.45481 9.05115 30897 ft 465 kts 126°
2026-05-07 03:02 48.43575 9.09051 30931 ft 465 kts 127°
2026-05-07 03:03 48.39769 9.16892 30913 ft 462 kts 128°
2026-05-07 03:03 48.35975 9.24704 30910 ft 462 kts 128°
2026-05-07 03:04 48.32164 9.32495 30910 ft 463 kts 128°
2026-05-07 03:04 48.28332 9.40272 30912 ft 462 kts 130°
2026-05-07 03:05 48.26128 9.43761 30920 ft 460 kts 141°
2026-05-07 03:05 48.23513 9.46510 30906 ft 457 kts 153°
2026-05-07 03:05 48.20638 9.48360 30916 ft 446 kts 164°
2026-05-07 03:05 48.17661 9.49673 30918 ft 446 kts 167°
2026-05-07 03:06 48.11682 9.52176 30925 ft 446 kts 166°
2026-05-07 03:06 48.05716 9.54738 30924 ft 446 kts 166°
2026-05-07 03:07 48.00026 9.58378 30922 ft 454 kts 150°
2026-05-07 03:07 47.94884 9.63913 30927 ft 456 kts 147°
2026-05-07 03:08 47.89764 9.69504 30926 ft 456 kts 147°
2026-05-07 03:08 47.84633 9.75029 30927 ft 455 kts 147°
2026-05-07 03:09 47.79539 9.80501 30935 ft 449 kts 149°
2026-05-07 03:09 47.74463 9.85941 30939 ft 449 kts 149°
2026-05-07 03:10 47.69354 9.91399 30942 ft 449 kts 149°
2026-05-07 03:10 47.64276 9.96822 30938 ft 449 kts 149°
2026-05-07 03:11 47.59227 10.02189 30940 ft 449 kts 149°
2026-05-07 03:11 47.54133 10.07586 30910 ft 450 kts 150°
2026-05-07 03:12 47.49082 10.12949 30937 ft 445 kts 150°
2026-05-07 03:12 47.44033 10.18252 30954 ft 443 kts 152°
2026-05-07 03:13 47.38818 10.23056 30964 ft 441 kts 154°
2026-05-07 03:13 47.33585 10.27823 30954 ft 442 kts 154°
2026-05-07 03:14 47.28346 10.32561 30954 ft 442 kts 155°
2026-05-07 03:15 47.20471 10.39609 30951 ft 439 kts 155°
2026-05-07 03:15 47.15293 10.44257 30975 ft 439 kts 155°
2026-05-07 03:16 47.10072 10.48934 30967 ft 439 kts 155°
2026-05-07 03:16 47.04764 10.53228 30965 ft 431 kts 165°
2026-05-07 03:17 46.99086 10.55904 30970 ft 427 kts 169°
2026-05-07 03:17 46.93397 10.58433 30969 ft 427 kts 169°
2026-05-07 03:18 46.87714 10.60990 30960 ft 427 kts 169°
2026-05-07 03:18 46.82027 10.63562 30955 ft 428 kts 169°
2026-05-07 03:19 46.76398 10.66096 30937 ft 423 kts 169°
2026-05-07 03:19 46.70753 10.68428 30933 ft 419 kts 173°
2026-05-07 03:20 46.65058 10.70300 30959 ft 420 kts 173°
2026-05-07 03:20 46.59339 10.72158 30958 ft 422 kts 173°
2026-05-07 03:21 46.53613 10.74025 30962 ft 421 kts 173°
2026-05-07 03:21 46.47901 10.75884 30964 ft 420 kts 173°
2026-05-07 03:22 46.42178 10.77749 30960 ft 421 kts 173°
2026-05-07 03:22 46.36454 10.79606 30971 ft 422 kts 173°
2026-05-07 03:23 46.30726 10.81447 30972 ft 422 kts 173°
2026-05-07 03:23 46.25009 10.83296 30774 ft 415 kts 173°
2026-05-07 03:23 46.22181 10.84205 30400 ft 418 kts 173°
2026-05-07 03:24 46.19335 10.85120 30134 ft 419 kts 173°
2026-05-07 03:24 46.17452 10.85726 29955 ft 419 kts 173°
2026-05-07 03:24 46.14601 10.86645 29662 ft 420 kts 173°
2026-05-07 03:24 46.11751 10.87563 29378 ft 421 kts 173°
2026-05-07 03:25 46.08893 10.88479 28910 ft 418 kts 173°
2026-05-07 03:25 46.06065 10.89389 27974 ft 416 kts 173°
2026-05-07 03:25 46.03239 10.90294 27024 ft 417 kts 173°
2026-05-07 03:25 46.00368 10.91210 26111 ft 423 kts 173°
2026-05-07 03:26 45.97498 10.92130 25215 ft 422 kts 173°
2026-05-07 03:26 45.94639 10.93046 24413 ft 420 kts 173°
2026-05-07 03:26 45.91810 10.93949 23753 ft 415 kts 172°
2026-05-07 03:26 45.89003 10.94844 23061 ft 412 kts 172°
2026-05-07 03:27 45.86211 10.95730 22367 ft 411 kts 172°
2026-05-07 03:27 45.83363 10.96627 21890 ft 428 kts 172°
2026-05-07 03:27 45.80448 10.97552 21547 ft 430 kts 172°
2026-05-07 03:27 45.77540 10.98483 21141 ft 425 kts 172°
2026-05-07 03:28 45.74690 10.99395 20584 ft 415 kts 172°
2026-05-07 03:28 45.71897 11.00279 19984 ft 406 kts 172°
2026-05-07 03:28 45.69170 11.01272 19414 ft 411 kts 167°
2026-05-07 03:28 45.66457 11.02900 18852 ft 428 kts 157°
2026-05-07 03:29 45.63989 11.05287 17992 ft 430 kts 144°
2026-05-07 03:29 45.61893 11.08348 17160 ft 433 kts 134°
2026-05-07 03:29 45.60158 11.11864 16525 ft 431 kts 127°
2026-05-07 03:29 45.58578 11.15466 15945 ft 425 kts 126°
2026-05-07 03:30 45.57045 11.18986 15385 ft 420 kts 126°
2026-05-07 03:30 45.55473 11.22537 14851 ft 414 kts 126°
2026-05-07 03:30 45.53961 11.25922 14409 ft 407 kts 126°
2026-05-07 03:30 45.52427 11.29341 13977 ft 400 kts 126°
2026-05-07 03:31 45.50929 11.32659 13532 ft 397 kts 126°
2026-05-07 03:31 45.49455 11.35906 13038 ft 394 kts 126°
2026-05-07 03:31 45.47976 11.39174 12463 ft 390 kts 126°
2026-05-07 03:31 45.46514 11.42409 11959 ft 385 kts 126°
2026-05-07 03:32 45.45087 11.45563 11619 ft 371 kts 126°
2026-05-07 03:32 45.43717 11.48590 11378 ft 356 kts 126°
2026-05-07 03:32 45.42334 11.51417 11174 ft 339 kts 132°
2026-05-07 03:32 45.40818 11.53885 10984 ft 324 kts 135°
2026-05-07 03:33 45.39343 11.56209 10806 ft 310 kts 136°
2026-05-07 03:33 45.37928 11.58428 10612 ft 297 kts 136°
2026-05-07 03:33 45.36552 11.60595 10213 ft 294 kts 136°
2026-05-07 03:33 45.35225 11.62806 9750 ft 295 kts 128°
2026-05-07 03:34 45.34393 11.65476 9294 ft 299 kts 104°
2026-05-07 03:34 45.34314 11.68427 8855 ft 299 kts 89°
2026-05-07 03:34 45.34475 11.71379 8451 ft 298 kts 87°
2026-05-07 03:34 45.34638 11.74309 8057 ft 297 kts 88°
2026-05-07 03:35 45.34782 11.77222 7722 ft 292 kts 88°
2026-05-07 03:35 45.34926 11.80051 7509 ft 281 kts 87°
2026-05-07 03:35 45.34967 11.82805 6845 ft 281 kts 97°
2026-05-07 03:35 45.34573 11.85529 6094 ft 282 kts 110°
2026-05-07 03:36 45.33713 11.88002 5575 ft 277 kts 128°
2026-05-07 03:36 45.32444 11.90032 5063 ft 274 kts 140°
2026-05-07 03:36 45.31267 11.92104 4636 ft 268 kts 116°
2026-05-07 03:36 45.30640 11.94529 4498 ft 252 kts 110°
2026-05-07 03:37 45.30133 11.96789 4542 ft 228 kts 110°
2026-05-07 03:37 45.29643 11.98911 4597 ft 225 kts 111°
2026-05-07 03:37 45.29121 12.01013 4624 ft 225 kts 112°
2026-05-07 03:37 45.28601 12.03081 4637 ft 225 kts 112°
2026-05-07 03:38 45.28292 12.05288 4635 ft 228 kts 89°
2026-05-07 03:38 45.28770 12.07347 4503 ft 224 kts 57°
2026-05-07 03:38 45.29803 12.08979 4259 ft 221 kts 39°
2026-05-07 03:38 45.31044 12.10263 3972 ft 220 kts 38°
2026-05-07 03:39 45.32186 12.11701 3687 ft 219 kts 39°
2026-05-07 03:39 45.33304 12.13124 3479 ft 206 kts 40°
2026-05-07 03:39 45.34315 12.14416 3240 ft 189 kts 40°
2026-05-07 03:39 45.35279 12.15650 3003 ft 186 kts 40°
2026-05-07 03:40 45.36236 12.16874 2962 ft 185 kts 40°
2026-05-07 03:40 45.37192 12.18098 2974 ft 185 kts 40°
2026-05-07 03:40 45.38147 12.19322 2932 ft 185 kts 40°
2026-05-07 03:40 45.39100 12.20542 2746 ft 184 kts 40°
2026-05-07 03:41 45.40051 12.21761 2510 ft 183 kts 40°
2026-05-07 03:41 45.40991 12.22966 2263 ft 182 kts 40°
2026-05-07 03:41 45.41904 12.24138 2032 ft 167 kts 40°
2026-05-07 03:41 45.42714 12.25179 1797 ft 144 kts 40°
2026-05-07 03:42 45.43432 12.26101 1594 ft 137 kts 40°
2026-05-07 03:42 45.44136 12.27005 1418 ft 135 kts 40°
2026-05-07 03:42 45.44834 12.27902 1258 ft 135 kts 41°
2026-05-07 03:42 45.45526 12.28790 1067 ft 134 kts 40°
2026-05-07 03:43 45.46212 12.29671 891 ft 132 kts 40°
2026-05-07 03:43 45.46889 12.30541 716 ft 131 kts 40°
2026-05-07 03:43 45.47566 12.31413 536 ft 131 kts 40°
2026-05-07 03:43 45.48238 12.32276 363 ft 130 kts 41°
2026-05-07 03:44 45.48911 12.33141 184 ft 130 kts 41°
2026-05-07 03:44 45.49582 12.34004 36 ft 129 kts 41°
2026-05-07 03:44 45.50198 12.34789 21 ft 105 kts 41°
2026-05-07 03:44 45.50590 12.35287 19 ft 47 kts 35°
2026-05-07 03:45 45.50826 12.35433 21 ft 37 kts
2026-05-07 03:45 45.50968 12.35334 23 ft 23 kts 255°
2026-05-07 03:45 45.50928 12.35169 22 ft 7 kts 224°
2026-05-07 03:45 45.50888 12.35117 22 ft 9 kts 221°
2026-05-07 03:46 45.50834 12.35048 23 ft 12 kts 222°
2026-05-07 03:46 45.50769 12.34963 21 ft 14 kts 223°
2026-05-07 03:46 45.50692 12.34863 21 ft 16 kts 222°
2026-05-07 03:46 45.50685 12.34853 21 ft 0 kts 222°
2026-05-07 03:47 45.50683 12.34851 21 ft 2 kts 222°
2026-05-07 03:48 45.50655 12.34814 21 ft 9 kts 222°
2026-05-07 03:48 45.50607 12.34723 21 ft 13 kts 259°
2026-05-07 03:48 45.50603 12.34580 21 ft 15 kts 268°
2026-05-07 03:48 45.50595 12.34428 21 ft 11 kts 246°
2026-05-07 03:49 45.50543 12.34357 21 ft 10 kts 216°
2026-05-07 03:49 45.50512 12.34341 21 ft 0 kts 197°
2026-05-07 03:50 45.50499 12.34306 21 ft 7 kts 254°
2026-05-07 03:50 45.50492 12.34239 21 ft 0 kts 275°
2026-05-07 03:50 45.50492 12.34229 21 ft 1 kts 268°
2026-05-07 03:51 45.50491 12.34215 21 ft 0 kts 268°
2026-05-07 03:51 45.50491 12.34216 21 ft 0 kts 268°